Miscellaneous Local Product
Issued by NWS Hastings, NE

Home | Current Version | Previous Version | Text Only | Print | Product List | Glossary Off
Versions: 1 2 3 4 5 6 7 8 9 10 11 12 13 14 15 16 17 18 19 20 21 22 23 24 25 26 27 28 29 30 31 32 33 34 35 36 37 38 39 40 41 42 43 44 45 46 47 48 49 50

000
AXUS43 KGID 061902
MISGRI

GID CWA HOURLY WEATHER ROUNDUP
NATIONAL WEATHER SERVICE HASTINGS NE
200 PM CDT MON JUL 06 2015

NOTE: "FAIR" INDICATES FEW OR NO CLOUDS BELOW 12,000 FEET WITH NO
SIGNIFICANT WEATHER AND/OR OBSTRUCTIONS TO VISIBILITY.

...SOUTH CENTRAL NEBRASKA...

CITY           SKY/WX    TMP DP  RH WIND       PRES   REMARKS
GRAND ISLAND   CLOUDY    75  62  64 N18       30.02R
HASTINGS       PTSUNNY   73  64  73 N20G25    30.01S
KEARNEY        CLOUDY    73  61  64 N20G26    30.04S
ORD            PTSUNNY   74  56  53 N22G28    30.05S HAZE
YORK           CLOUDY    72  66  83 N18G26    29.98R
AURORA         CLOUDY    74  67  79 N17G26    29.99S
LEXINGTON      PTSUNNY   76  62  60 N18G24    30.08S HAZE
HOLDREGE       CLOUDY    68  62  79 N18G24    30.06R
HEBRON         DRIZZLE   73  69  86 N12G18    29.94R

...NEBRASKA PANHANDLE...

CITY           SKY/WX    TMP DP  RH WIND       PRES   REMARKS
CHADRON        CLOUDY    69  55  60 VRB7      30.24S HAZE
ALLIANCE       PTSUNNY   68  54  60 N14       30.23S HAZE
SCOTTSBLUFF    CLOUDY    65  52  62 N8        30.26S HAZE
SIDNEY         CLOUDY    69  52  54 N17       30.25S HAZE

...WESTERN AND NORTH CENTRAL NEBRASKA...

CITY           SKY/WX    TMP DP  RH WIND       PRES   REMARKS
VALENTINE      PTSUNNY   73  51  46 N17G24    30.15S
AINSWORTH      MOSUNNY   73  54  51 N17G26    30.14F HAZE
ONEILL         CLOUDY    74  59  59 N23G29    30.07F HAZE
BROKEN BOW     PTSUNNY   74  54  49 N24G33    30.09R HAZE
IMPERIAL       CLOUDY    71  55  56 N15       30.16S
NORTH PLATTE   PTSUNNY   73  56  54 N20       30.13S
MCCOOK         CLOUDY    71  60  68 N20       30.10R HAZE

...EASTERN NEBRASKA...

CITY           SKY/WX    TMP DP  RH WIND       PRES   REMARKS
NORFOLK        CLOUDY    73  64  73 N16       30.00R HAZE
SO SIOUX CITY  CLOUDY    73  66  78 N18       29.95R
TEKAMAH        CLOUDY    77  72  84 N16G23    29.92R
ALBION         PTSUNNY   74  61  63 N16G25    30.02R
OMAHA EPPLEY   CLOUDY    76  71  85 W3        29.92R
OFFUTT AFB     LGT RAIN  73  70  91 NW8       29.91S
MILLARD        CLOUDY    74  72  92 CALM      29.91F
LINCOLN        LGT RAIN  74  71  91 N8        29.94R
NEBRASKA CITY  LGT RAIN  75  74  97 N3        29.90S
BEATRICE       CLOUDY    73  72  96 NE6       29.93R
FALLS CITY     CLOUDY    79  74  84 NW10      29.86S

...NORTHERN KANSAS...

CITY           SKY/WX    TMP DP  RH WIND       PRES   REMARKS
GOODLAND       CLOUDY    68  59  73 N20G29    30.16R
HILL CITY      CLOUDY    73  63  70 N21G29    30.04R
NORTON         CLOUDY    70  57  64 N18G25    30.05S
PHILLIPSBURG   CLOUDY    75  64  69 N16G25    30.02R
SMITH CENTER   LGT RAIN  68  64  88 N13G28    30.00R
HAYS           CLOUDY    73  63  68 N21G29    29.98R
RUSSELL        CLOUDY    77  74  90 N18       29.94R
CONCORDIA      LGT RAIN  74  72  93 CALM      29.93R FOG
SALINA         CLOUDY    77  72  84 NW28G38   29.86S THUNDER
TOPEKA         MOSUNNY   92  75  57 S13G18    29.85F HX 103



USA.gov is the U.S. government's official web portal to all federal, state and local government web resources and services.